N2PUI Weather Reports


Display with metric or nautical units.
time (UTC)temp
F
wind
direction
speed
MPH
gust
MPH
rain 1hr
in
rain 24hr
in
rain mn
in
humidity
%
barometer
mb
20260831053656 60 139 0.0 0.0 0.00 0.00 0.00 95 1021.8
20260831053154 60 131 0.0 0.0 0.00 0.00 0.00 95 1021.9
20260831052649 59 163 0.0 0.0 0.00 0.00 0.00 94 1021.9
20260831052148 60 163 0.0 0.0 0.00 0.00 0.00 94 1021.9
20260831051646 60 163 0.0 0.0 0.00 0.00 0.00 94 1021.8
20260831051145 60 167 0.0 0.0 0.00 0.00 0.00 94 1021.6
20260831050640 60 172 0.0 0.0 0.00 0.00 0.00 94 1021.9
20260831050139 60 151 0.0 0.0 0.00 0.00 0.00 94 1021.7
20260831045638 61 144 0.0 0.0 0.00 0.00 0.00 94 1021.8
20260831045133 61 134 0.0 0.0 0.00 0.00 0.00 93 1021.7
20260831044629 61 154 0.0 0.0 0.00 0.00 0.00 93 1021.6
20260831044124 61 134 0.0 0.0 0.00 0.00 0.00 93 1021.7
20260831043619 60 134 0.0 0.0 0.00 0.00 0.00 93 1021.7
20260831043109 61 134 0.0 0.0 0.00 0.00 0.00 93 1021.9
20260831042608 61 137 0.0 0.0 0.00 0.00 0.00 92 1021.8
20260831042103 61 135 0.0 0.0 0.00 0.00 0.00 92 1021.5
20260831041558 62 135 0.0 0.0 0.00 0.00 0.00 92 1021.8
20260831041057 62 135 0.0 0.0 0.00 0.00 0.00 92 1021.8
20260831040552 62 136 0.0 0.0 0.00 0.00 0.00 92 1021.7
20260831040051 62 134 0.0 0.0 0.00 0.00 0.00 92 1021.8
20260831035543 62 138 0.0 0.0 0.00 0.00 0.00 91 1021.6
20260831035039 62 138 0.0 0.0 0.00 0.00 0.00 91 1021.6
20260831034538 63 138 0.0 0.0 0.00 0.00 0.00 91 1021.8
20260831034034 62 139 0.0 0.0 0.00 0.00 0.00 91 1021.6
20260831033530 63 139 0.0 0.0 0.00 0.00 0.00 90 1021.8
20260831033025 63 139 0.0 0.0 0.00 0.00 0.00 90 1021.7
20260831032524 63 139 0.0 0.0 0.00 0.00 0.00 90 1021.7
20260831032020 63 139 0.0 0.0 0.00 0.00 0.00 90 1021.8
20260831031519 64 140 0.0 0.0 0.00 0.00 0.00 90 1021.6
20260831031019 64 140 0.0 0.0 0.00 0.00 0.00 90 1021.8
20260831030518 64 140 0.0 0.0 0.00 0.00 0.00 90 1021.7
20260831030017 64 140 0.0 0.0 0.00 0.00 0.00 90 1021.9
20260831025510 64 138 0.0 0.0 0.00 0.00 0.00 89 1021.7
20260831025005 64 160 0.0 0.0 0.00 0.00 0.00 89 1021.6
20260831024501 65 160 0.0 0.0 0.00 0.00 0.00 89 1021.7
20260831024000 65 162 0.0 0.0 0.00 0.00 0.00 89 1021.5
20260831023458 65 162 0.0 0.0 0.00 0.00 0.00 89 1021.9
20260831022953 65 151 0.0 0.0 0.00 0.00 0.00 89 1021.7
20260831022452 65 148 0.0 0.0 0.00 0.00 0.00 88 1021.7
20260831021948 65 117 0.0 0.0 0.00 0.00 0.00 88 1021.8
20260831021446 65 145 0.0 0.0 0.00 0.00 0.00 88 1022.0
20260831020942 65 145 0.0 0.0 0.00 0.00 0.00 88 1021.9
20260831020437 65 144 0.0 0.0 0.00 0.00 0.00 88 1021.7
20260831015932 65 146 0.0 0.0 0.00 0.00 0.00 88 1021.6
20260831015428 65 147 0.0 0.0 0.00 0.00 0.00 87 1021.6
20260831014922 65 147 0.0 0.0 0.00 0.00 0.00 87 1021.7
20260831014417 65 147 0.0 0.0 0.00 0.00 0.00 87 1021.5
20260831013913 65 147 0.0 0.0 0.00 0.00 0.00 86 1021.6
20260831013409 65 128 0.0 0.0 0.00 0.00 0.00 86 1021.6
20260831012903 65 181 0.0 0.0 0.00 0.00 0.00 86 1021.5
20260831012358 65 182 0.0 0.0 0.00 0.00 0.00 86 1021.5
20260831011858 65 29 2.0 2.0 0.00 0.00 0.00 86 1021.7
20260831011352 66 104 1.0 2.0 0.00 0.00 0.00 85 1021.6
20260831010848 66 138 0.0 0.0 0.00 0.00 0.00 85 1021.7
20260831010348 66 116 1.0 1.0 0.00 0.00 0.00 84 1021.7
20260831005844 66 175 0.0 0.0 0.00 0.00 0.00 84 1021.3
20260831005339 67 165 0.0 0.0 0.00 0.00 0.00 83 1021.2
20260831004834 67 139 0.0 0.0 0.00 0.00 0.00 83 1021.3
20260831004330 67 152 0.0 0.0 0.00 0.00 0.00 83 1021.0
20260831003825 67 177 0.0 1.0 0.00 0.00 0.00 83 1021.2
20260831003322 67 193 2.0 2.0 0.00 0.00 0.00 83 1021.0
20260831002820 67 182 0.0 1.0 0.00 0.00 0.00 83 1020.8
20260831002314 67 284 1.0 2.0 0.00 0.00 0.00 83 1020.4
20260831001811 67 196 1.0 1.0 0.00 0.00 0.00 82 1020.6
20260831001305 67 161 0.0 1.0 0.00 0.00 0.00 82 1020.4
20260831000803 67 141 0.0 1.0 0.00 0.00 0.00 82 1020.5
20260831000303 67 120 1.0 1.0 0.00 0.00 0.00 82 1020.4
20260830235801 67 136 0.0 0.0 0.00 0.00 0.00 81 1020.5
20260830235256 68 144 1.0 2.0 0.00 0.00 0.00 81 1020.2
20260830234751 68 179 1.0 2.0 0.00 0.00 0.00 80 1020.4
20260830234247 68 227 3.0 3.0 0.00 0.00 0.00 80 1020.3
20260830233743 68 231 2.0 2.0 0.00 0.00 0.00 80 1020.3
20260830233238 68 185 1.0 1.0 0.00 0.00 0.00 80 1020.4
20260830232734 68 191 2.0 2.0 0.00 0.00 0.00 80 1020.4
20260830232229 68 298 2.0 2.0 0.00 0.00 0.00 81 1020.3
20260830231726 68 178 1.0 1.0 0.00 0.00 0.00 81 1020.2
20260830231225 68 144 0.0 1.0 0.00 0.00 0.00 81 1020.3
20260830230720 68 174 0.0 0.0 0.00 0.00 0.00 81 1020.5
20260830230215 68 166 0.0 0.0 0.00 0.00 0.00 81 1020.4
20260830225709 68 156 0.0 0.0 0.00 0.00 0.00 80 1020.3
20260830225204 68 161 0.0 0.0 0.00 0.00 0.00 80 1020.5
20260830224703 69 176 0.0 1.0 0.00 0.00 0.00 80 1020.4
20260830224159 69 155 0.0 1.0 0.00 0.00 0.00 80 1020.3
20260830223655 69 128 1.0 1.0 0.00 0.00 0.00 79 1020.4
20260830223150 69 138 0.0 1.0 0.00 0.00 0.00 79 1020.3
20260830222644 69 162 1.0 1.0 0.00 0.00 0.00 79 1020.1
20260830222140 69 178 0.0 0.0 0.00 0.00 0.00 79 1020.3
20260830221630 69 146 0.0 0.0 0.00 0.00 0.00 79 1020.0
20260830221126 69 187 1.0 1.0 0.00 0.00 0.00 79 1020.2
20260830220621 69 155 0.0 0.0 0.00 0.00 0.00 79 1020.3
20260830220120 69 149 0.0 0.0 0.00 0.00 0.00 79 1020.2
20260830215619 69 147 0.0 0.0 0.00 0.00 0.00 78 1020.2
20260830215114 70 180 0.0 1.0 0.00 0.00 0.00 78 1020.0
20260830214609 70 156 1.0 1.0 0.00 0.00 0.00 76 1020.0
20260830214103 70 159 0.0 0.0 0.00 0.00 0.00 76 1019.8
20260830213557 70 173 0.0 0.0 0.00 0.00 0.00 75 1020.2
20260830213053 70 240 2.0 2.0 0.00 0.00 0.00 75 1020.2
20260830212549 70 176 0.0 1.0 0.00 0.00 0.00 74 1020.3
20260830212043 70 309 1.0 2.0 0.00 0.00 0.00 75 1020.1
20260830211538 70 276 2.0 3.0 0.00 0.00 0.00 75 1020.3
20260830211037 70 178 1.0 1.0 0.00 0.00 0.00 75 1020.2
20260830210532 70 179 0.0 0.0 0.00 0.00 0.00 75 1020.3
20260830210026 70 197 1.0 1.0 0.00 0.00 0.00 74 1020.5
20260830205524 71 210 1.0 1.0 0.00 0.00 0.00 73 1020.1
20260830205020 71 186 1.0 2.0 0.00 0.00 0.00 73 1020.0
20260830204518 71 187 0.0 0.0 0.00 0.00 0.00 74 1020.2
20260830204013 71 184 0.0 0.0 0.00 0.00 0.00 74 1020.2
20260830203509 70 184 0.0 0.0 0.00 0.00 0.00 74 1020.2
20260830203004 70 184 0.0 0.0 0.00 0.00 0.00 75 1020.2
20260830202458 70 210 0.0 0.0 0.00 0.00 0.00 74 1020.4
20260830201954 70 189 0.0 0.0 0.00 0.00 0.00 73 1020.2
20260830201453 70 181 0.0 0.0 0.00 0.00 0.00 73 1020.4
20260830200948 71 154 1.0 1.0 0.00 0.00 0.00 72 1020.5
20260830200443 71 161 0.0 0.0 0.00 0.00 0.00 72 1020.3
20260830195937 71 176 0.0 0.0 0.00 0.00 0.00 72 1020.4
20260830195433 71 196 1.0 1.0 0.00 0.00 0.00 71 1020.4
20260830194930 71 0 2.0 2.0 0.00 0.00 0.00 71 1020.1
20260830194425 71 203 2.0 2.0 0.00 0.00 0.00 70 1020.1
20260830193924 71 196 1.0 2.0 0.00 0.00 0.00 70 1020.3
20260830193423 71 298 3.0 3.0 0.00 0.00 0.00 70 1020.3
20260830192919 72 282 2.0 2.0 0.00 0.00 0.00 71 1020.3
20260830192414 72 311 2.0 2.0 0.00 0.00 0.00 70 1020.4
20260830191914 72 310 5.0 7.0 0.00 0.00 0.00 69 1020.2
20260830191409 73 326 6.0 8.0 0.00 0.00 0.00 69 1020.3
20260830190905 73 261 3.0 3.0 0.00 0.00 0.00 69 1020.2
20260830190400 74 9 3.0 3.0 0.00 0.00 0.00 69 1020.2
20260830185859 74 30 2.0 2.0 0.00 0.00 0.00 69 1020.2
20260830185354 75 275 3.0 6.0 0.00 0.00 0.00 69 1020.1
20260830184849 75 197 1.0 1.0 0.00 0.00 0.00 71 1020.1
20260830184348 75 141 1.0 1.0 0.00 0.00 0.00 71 1020.3
20260830183843 76 169 1.0 1.0 0.00 0.00 0.00 70 1020.1
20260830183343 77 157 0.0 1.0 0.00 0.00 0.00 69 1020.2
20260830182838 77 185 0.0 0.0 0.00 0.00 0.00 67 1020.0
20260830182334 77 154 0.0 1.0 0.00 0.00 0.00 67 1020.0
20260830181830 77 192 1.0 1.0 0.00 0.00 0.00 67 1020.2
20260830181325 77 146 0.0 1.0 0.00 0.00 0.00 68 1020.1
20260830180824 77 200 1.0 1.0 0.00 0.00 0.00 65 1020.4
20260830180319 77 185 0.0 0.0 0.00 0.00 0.00 65 1020.0
20260830175818 76 183 1.0 2.0 0.00 0.00 0.00 64 1020.2
20260830175313 77 299 3.0 3.0 0.00 0.00 0.00 64 1020.2
20260830174809 77 263 2.0 2.0 0.00 0.00 0.00 65 1020.3
20260830174304 78 144 2.0 2.0 0.00 0.00 0.00 63 1020.3
20260830173803 77 189 1.0 1.0 0.00 0.00 0.00 62 1020.3
20260830173259 77 185 0.0 1.0 0.00 0.00 0.00 62 1020.3
20260830172755 77 179 0.0 1.0 0.00 0.00 0.00 67 1020.4
20260830172252 77 176 1.0 1.0 0.00 0.00 0.00 63 1020.5
20260830171747 77 186 1.0 1.0 0.00 0.00 0.00 64 1020.7
20260830171242 77 31 3.0 3.0 0.00 0.00 0.00 62 1020.5
20260830170737 78 147 2.0 3.0 0.00 0.00 0.00 63 1020.3
20260830170236 78 264 2.0 2.0 0.00 0.00 0.00 63 1020.7
20260830165735 77 157 0.0 0.0 0.00 0.00 0.00 62 1020.5
20260830165231 78 185 1.0 1.0 0.00 0.00 0.00 66 1020.5
20260830164727 78 182 2.0 2.0 0.00 0.00 0.00 62 1020.7
20260830164222 77 169 0.0 1.0 0.00 0.00 0.00 65 1020.8
20260830163714 78 196 2.0 2.0 0.00 0.00 0.00 64 1020.7
20260830163209 76 193 1.0 2.0 0.00 0.00 0.00 64 1020.5
20260830162704 78 317 3.0 3.0 0.00 0.00 0.00 62 1020.8
20260830162200 79 284 2.0 2.0 0.00 0.00 0.00 61 1021.0
20260830161654 79 174 1.0 2.0 0.00 0.00 0.00 63 1021.1
20260830161149 76 163 1.0 1.0 0.00 0.00 0.00 66 1021.0
20260830160645 74 174 1.0 1.0 0.00 0.00 0.00 67 1021.1
20260830160139 75 190 1.0 2.0 0.00 0.00 0.00 67 1021.1
20260830155636 75 190 1.0 1.0 0.00 0.00 0.00 66 1021.2
20260830155132 73 187 2.0 2.0 0.00 0.00 0.00 70 1021.1
20260830154626 73 171 2.0 2.0 0.00 0.00 0.00 71 1021.5
20260830154123 72 178 1.0 1.0 0.00 0.00 0.00 71 1021.3
20260830153619 72 172 3.0 3.0 0.00 0.00 0.00 71 1021.6
20260830153119 73 129 0.0 1.0 0.00 0.00 0.00 69 1021.6
20260830152618 72 192 2.0 2.0 0.00 0.00 0.00 71 1021.6
20260830152117 70 173 3.0 3.0 0.00 0.00 0.00 73 1021.4
20260830151612 71 117 3.0 3.0 0.00 0.00 0.00 72 1021.5
20260830151106 70 189 3.0 3.0 0.00 0.00 0.00 73 1021.4
20260830150601 69 179 0.0 0.0 0.00 0.00 0.00 72 1021.6
20260830150056 69 180 1.0 1.0 0.00 0.00 0.00 73 1021.5
20260830145555 69 148 1.0 2.0 0.00 0.00 0.00 74 1021.7
20260830145050 68 184 3.0 3.0 0.00 0.00 0.00 74 1021.5
20260830144546 69 132 2.0 2.0 0.00 0.00 0.00 73 1021.5
20260830144042 69 149 0.0 1.0 0.00 0.00 0.00 72 1021.8
20260830143538 69 108 2.0 2.0 0.00 0.00 0.00 71 1021.7
20260830143035 69 170 2.0 2.0 0.00 0.00 0.00 73 1021.8
20260830142531 69 169 0.0 0.0 0.00 0.00 0.00 73 1021.5
20260830142026 68 159 0.0 0.0 0.00 0.00 0.00 74 1021.3
20260830141522 68 174 3.0 3.0 0.00 0.00 0.00 75 1021.1
20260830141022 68 136 0.0 0.0 0.00 0.00 0.00 74 1021.1
20260830140521 68 188 1.0 2.0 0.00 0.00 0.00 74 1021.4
20260830140018 68 169 1.0 1.0 0.00 0.00 0.00 75 1021.5
20260830135512 67 88 0.0 0.0 0.00 0.00 0.00 77 1021.6
20260830135007 67 116 3.0 3.0 0.00 0.00 0.00 78 1021.7
20260830134503 65 147 0.0 0.0 0.00 0.00 0.00 80 1021.5
20260830133958 65 157 1.0 1.0 0.00 0.00 0.00 80 1021.6
20260830133454 65 144 0.0 1.0 0.00 0.00 0.00 82 1021.7
20260830132948 64 125 2.0 3.0 0.00 0.00 0.00 81 1022.0
20260830132445 63 134 0.0 1.0 0.00 0.00 0.00 83 1021.8
20260830131944 63 147 0.0 1.0 0.00 0.00 0.00 87 1021.8
20260830131443 62 162 0.0 0.0 0.00 0.00 0.00 88 1022.0
20260830130938 62 143 1.0 1.0 0.00 0.00 0.00 88 1022.0
20260830130434 61 128 1.0 2.0 0.00 0.00 0.00 89 1022.1
20260830125932 61 140 0.0 0.0 0.00 0.00 0.00 90 1022.1
20260830125428 61 157 0.0 0.0 0.00 0.00 0.00 90 1022.4
20260830124926 61 174 0.0 0.0 0.00 0.00 0.00 91 1022.0
20260830124421 61 175 0.0 0.0 0.00 0.00 0.00 91 1022.3
20260830123918 61 174 0.0 0.0 0.00 0.00 0.00 92 1022.1
20260830123414 61 175 0.0 0.0 0.00 0.00 0.00 93 1021.9
20260830122912 60 175 0.0 0.0 0.00 0.00 0.00 95 1022.1
20260830122406 60 167 0.0 0.0 0.00 0.00 0.00 95 1022.2
20260830121906 59 166 0.0 0.0 0.00 0.00 0.00 95 1022.4
20260830121401 58 143 2.0 2.0 0.00 0.00 0.00 95 1022.2
20260830120856 58 144 0.0 0.0 0.00 0.00 0.00 95 1022.2
20260830120352 57 130 0.0 0.0 0.00 0.00 0.00 95 1022.2
20260830115848 57 125 2.0 2.0 0.00 0.00 0.00 95 1021.9
20260830115344 57 152 0.0 0.0 0.00 0.00 0.00 95 1022.1
20260830114839 57 164 0.0 0.0 0.00 0.00 0.00 95 1022.1
20260830114336 57 161 0.0 0.0 0.00 0.00 0.00 95 1022.5
20260830113830 57 151 0.0 0.0 0.00 0.00 0.00 95 1022.5
20260830113325 57 151 0.0 0.0 0.00 0.00 0.00 95 1022.6
20260830112821 57 144 0.0 0.0 0.00 0.00 0.00 95 1022.4
20260830112317 57 165 0.0 0.0 0.00 0.00 0.00 95 1022.7
20260830111813 57 170 0.0 0.0 0.00 0.00 0.00 95 1022.6
20260830111309 56 140 0.0 0.0 0.00 0.00 0.00 95 1022.6
20260830110808 56 120 1.0 1.0 0.00 0.00 0.00 95 1022.6
20260830110305 56 151 0.0 0.0 0.00 0.00 0.00 95 1022.7
20260830105803 56 137 0.0 0.0 0.00 0.00 0.00 95 1022.5
20260830105300 56 136 0.0 0.0 0.00 0.00 0.00 95 1022.6
20260830104756 56 136 0.0 0.0 0.00 0.00 0.00 95 1022.7
20260830104253 56 136 0.0 0.0 0.00 0.00 0.00 95 1022.8
20260830103751 56 136 0.0 0.0 0.00 0.00 0.00 95 1022.5
20260830103247 56 136 0.0 0.0 0.00 0.00 0.00 95 1022.5
20260830102739 56 136 0.0 0.0 0.00 0.00 0.00 95 1022.7
20260830102235 56 136 0.0 0.0 0.00 0.00 0.00 95 1022.7
20260830101731 56 136 0.0 0.0 0.00 0.00 0.00 95 1022.5
20260830101226 56 136 0.0 0.0 0.00 0.00 0.00 95 1022.5
20260830100720 56 136 0.0 0.0 0.00 0.00 0.00 95 1022.6
20260830100215 56 136 0.0 0.0 0.00 0.00 0.00 95 1022.7
20260830095714 56 136 0.0 0.0 0.00 0.00 0.00 95 1022.5
20260830095210 56 137 0.0 0.0 0.00 0.00 0.00 95 1022.7
20260830094706 56 137 0.0 0.0 0.00 0.00 0.00 95 1022.8
20260830094201 55 137 0.0 0.0 0.00 0.00 0.00 95 1022.8
20260830093656 56 135 0.0 0.0 0.00 0.00 0.00 95 1022.9
20260830093153 56 138 0.0 0.0 0.00 0.00 0.00 95 1022.8
20260830092652 56 141 0.0 0.0 0.00 0.00 0.00 95 1022.8
20260830092149 57 155 0.0 0.0 0.00 0.00 0.00 95 1022.9
20260830091644 57 155 0.0 0.0 0.00 0.00 0.00 95 1022.7
20260830091142 57 180 0.0 0.0 0.00 0.00 0.00 95 1022.9
20260830090638 57 180 0.0 0.0 0.00 0.00 0.00 95 1022.6
20260830090133 57 180 0.0 0.0 0.00 0.00 0.00 95 1022.9
20260830085632 57 181 0.0 0.0 0.00 0.00 0.00 95 1022.6
20260830085128 57 180 0.0 0.0 0.00 0.00 0.00 95 1023.0
20260830084624 57 168 0.0 0.0 0.00 0.00 0.00 95 1023.0
20260830084119 57 167 0.0 0.0 0.00 0.00 0.00 95 1022.7
20260830083615 57 168 0.0 0.0 0.00 0.00 0.00 95 1022.8
20260830083114 57 167 0.0 0.0 0.00 0.00 0.00 95 1023.0
20260830082609 57 167 0.0 0.0 0.00 0.00 0.00 95 1022.9
20260830082105 57 167 0.0 0.0 0.00 0.00 0.00 95 1023.1
20260830081601 57 166 0.0 0.0 0.00 0.00 0.00 95 1023.0
20260830081100 57 167 0.0 0.0 0.00 0.00 0.00 95 1023.2
20260830080554 57 164 0.0 0.0 0.00 0.00 0.00 95 1023.2
20260830080050 57 163 0.0 0.0 0.00 0.00 0.00 95 1023.2
20260830075544 57 161 0.0 0.0 0.00 0.00 0.00 94 1023.1
20260830075039 57 149 0.0 0.0 0.00 0.00 0.00 94 1023.1
20260830074536 57 159 0.0 0.0 0.00 0.00 0.00 94 1023.2
20260830074031 57 164 0.0 0.0 0.00 0.00 0.00 94 1023.1
20260830073527 57 165 0.0 0.0 0.00 0.00 0.00 94 1023.4
20260830073022 57 144 0.0 0.0 0.00 0.00 0.00 94 1023.2
20260830072517 57 169 0.0 0.0 0.00 0.00 0.00 94 1023.0
20260830072017 57 169 0.0 0.0 0.00 0.00 0.00 94 1023.1
20260830071513 57 169 0.0 0.0 0.00 0.00 0.00 94 1023.2
20260830071010 57 169 0.0 0.0 0.00 0.00 0.00 94 1023.0
20260830070505 57 170 0.0 0.0 0.00 0.00 0.00 94 1023.2
20260830070005 57 165 0.0 0.0 0.00 0.00 0.00 94 1023.2
20260830065459 57 138 0.0 0.0 0.00 0.00 0.00 94 1023.4
20260830064957 57 151 0.0 0.0 0.00 0.00 0.00 94 1023.0
20260830064452 57 173 0.0 0.0 0.00 0.00 0.00 94 1023.0
20260830063947 57 136 0.0 0.0 0.00 0.00 0.00 94 1023.1
20260830063447 57 139 0.0 0.0 0.00 0.00 0.00 94 1023.1
20260830062946 57 139 0.0 0.0 0.00 0.00 0.00 94 1022.9
20260830062445 57 139 0.0 0.0 0.00 0.00 0.00 94 1023.1
20260830061940 57 139 0.0 0.0 0.00 0.00 0.00 94 1023.2
20260830061435 57 139 0.0 0.0 0.00 0.00 0.00 93 1023.0
20260830060932 57 139 0.0 0.0 0.00 0.00 0.00 93 1023.4
20260830060428 57 139 0.0 0.0 0.00 0.00 0.00 93 1023.1
20260830055923 57 139 0.0 0.0 0.00 0.00 0.00 93 1023.0
20260830055419 57 140 0.0 0.0 0.00 0.00 0.00 93 1023.2
20260830054914 57 139 0.0 0.0 0.00 0.00 0.00 93 1023.0
20260830054410 57 140 0.0 0.0 0.00 0.00 0.00 93 1023.1